When you browse on this site, cookies collect data to enhance your experience and personalize the content and advertising you see.
Visit our Privacy Policy to learn more. By continuing to use the site, you agree to this use of cookies and data.
  • In Latvia
  • List of Countries
  • For 7 days
  • Water Temperature
  • Satellite Maps
  • Weather Map
  • Weather Widgets
  • user-avatar
    Login

    Hourly Weather Zamojsce

    Today, 19 June, Wednesday

    Time Temperature Precipitation Wind Pressure Humidity
    00:00 +19°C° 0 mm 3 mps 745 mmHg 95%
    01:00 +19°C° 0 mm 3 mps 745 mmHg 96%
    02:00 +18°C° 0 mm 3 mps 745 mmHg 97%
    03:00 +18°C° 0 mm 3 mps 744 mmHg 97%
    04:00 +18°C° 0 mm 3 mps 744 mmHg 97%
    05:00 +18°C° 0 mm 2 mps 744 mmHg 97%
    06:00 +19°C° 0 mm 3 mps 744 mmHg 94%
    07:00 +20°C° 0 mm 3 mps 744 mmHg 91%
    08:00 +22°C° 0 mm 4 mps 744 mmHg 88%
    09:00 +23°C° 0.3 mm 4 mps 744 mmHg 86%
    10:00 +25°C° 0.3 mm 4 mps 744 mmHg 84%
    11:00 +26°C° 0.3 mm 4 mps 743 mmHg 82%
    12:00 +27°C° 1.3 mm 3 mps 743 mmHg 77%
    13:00 +28°C° 1.3 mm 3 mps 743 mmHg 73%
    14:00 +28°C° 1.3 mm 2 mps 743 mmHg 69%
    15:00 +28°C° 0.4 mm 2 mps 742 mmHg 72%
    16:00 +28°C° 0.4 mm 2 mps 742 mmHg 75%
    17:00 +27°C° 0.4 mm 2 mps 742 mmHg 78%
    18:00 +26°C° 0.3 mm 2 mps 742 mmHg 81%
    19:00 +25°C° 0.3 mm 3 mps 742 mmHg 85%
    20:00 +24°C° 0.3 mm 3 mps 741 mmHg 88%
    21:00 +22°C° 0 mm 3 mps 741 mmHg 89%
    22:00 +21°C° 0 mm 2 mps 742 mmHg 90%
    23:00 +21°C° 0 mm 2 mps 742 mmHg 90%

    Tomorrow, 20 June, Thursday

    Time Temperature Precipitation Wind Pressure Humidity
    00:00 +20°C° 0 mm 2 mps 741 mmHg 90%
    01:00 +20°C° 0 mm 2 mps 741 mmHg 90%
    02:00 +20°C° 0 mm 2 mps 741 mmHg 89%
    03:00 +20°C° 0 mm 2 mps 741 mmHg 89%
    04:00 +21°C° 0 mm 1 mps 741 mmHg 89%
    05:00 +20°C° 0 mm 1 mps 741 mmHg 88%
    06:00 +22°C° 0 mm 1 mps 741 mmHg 85%
    07:00 +23°C° 0 mm 1 mps 742 mmHg 82%
    08:00 +25°C° 0 mm 2 mps 742 mmHg 78%
    09:00 +26°C° 0.1 mm 2 mps 742 mmHg 73%
    10:00 +27°C° 0.1 mm 2 mps 742 mmHg 68%
    11:00 +28°C° 0.1 mm 3 mps 742 mmHg 63%
    12:00 +29°C° 0 mm 3 mps 742 mmHg 60%
    13:00 +30°C° 0 mm 3 mps 741 mmHg 57%
    14:00 +30°C° 0 mm 2 mps 741 mmHg 54%
    15:00 +30°C° 0.3 mm 2 mps 741 mmHg 58%
    16:00 +29°C° 0.3 mm 2 mps 741 mmHg 62%
    17:00 +28°C° 0.3 mm 2 mps 741 mmHg 66%
    18:00 +27°C° 0.7 mm 2 mps 741 mmHg 72%
    19:00 +25°C° 0.7 mm 2 mps 741 mmHg 78%
    20:00 +23°C° 0.7 mm 1 mps 741 mmHg 83%
    21:00 +23°C° 0 mm 1 mps 741 mmHg 84%
    22:00 +22°C° 0 mm 1 mps 741 mmHg 84%
    23:00 +22°C° 0 mm 1 mps 742 mmHg 85%

    Day after tomorrow, 21 June, Friday

    Time Temperature Precipitation Wind Pressure Humidity
    00:00 +21°C° 0 mm 1 mps 742 mmHg 85%
    01:00 +21°C° 0 mm 1 mps 742 mmHg 85%
    02:00 +21°C° 0 mm 1 mps 742 mmHg 86%
    03:00 +20°C° 0 mm 1 mps 742 mmHg 86%
    04:00 +20°C° 0 mm 1 mps 742 mmHg 86%
    05:00 +20°C° 0 mm 1 mps 742 mmHg 87%
    06:00 +22°C° 0 mm 1 mps 742 mmHg 83%
    07:00 +23°C° 0 mm 1 mps 742 mmHg 79%
    08:00 +25°C° 0 mm 1 mps 743 mmHg 75%
    09:00 +26°C° 0 mm 1 mps 743 mmHg 71%
    10:00 +27°C° 0 mm 1 mps 743 mmHg 67%
    11:00 +29°C° 0 mm 2 mps 743 mmHg 63%
    12:00 +29°C° 0.3 mm 1 mps 743 mmHg 61%
    13:00 +30°C° 0.3 mm 1 mps 743 mmHg 59%
    14:00 +30°C° 0.3 mm 1 mps 742 mmHg 57%
    15:00 +29°C° 0.7 mm 1 mps 742 mmHg 61%
    16:00 +29°C° 0.7 mm 1 mps 742 mmHg 66%
    17:00 +28°C° 0.7 mm 1 mps 742 mmHg 70%
    18:00 +27°C° 0.3 mm 1 mps 742 mmHg 73%
    19:00 +26°C° 0.3 mm 1 mps 742 mmHg 76%
    20:00 +25°C° 0.3 mm 1 mps 742 mmHg 79%
    21:00 +24°C° 0.1 mm 1 mps 742 mmHg 82%
    22:00 +23°C° 0.1 mm 1 mps 742 mmHg 84%
    23:00 +22°C° 0.1 mm 1 mps 742 mmHg 86%

    22 June, Saturday

    Time Temperature Precipitation Wind Pressure Humidity
    00:00 +22°C° 0.1 mm 1 mps 743 mmHg 86%
    01:00 +21°C° 0.1 mm 1 mps 743 mmHg 86%
    02:00 +21°C° 0.1 mm 1 mps 743 mmHg 87%
    03:00 +21°C° 0.2 mm 1 mps 743 mmHg 87%
    04:00 +21°C° 0.2 mm 1 mps 743 mmHg 88%
    05:00 +21°C° 0.2 mm 1 mps 743 mmHg 89%
    06:00 +21°C° 0.1 mm 1 mps 743 mmHg 89%
    07:00 +21°C° 0.1 mm 2 mps 743 mmHg 89%
    08:00 +23°C° 0.1 mm 2 mps 743 mmHg 89%
    09:00 +22°C° 0.8 mm 3 mps 743 mmHg 88%
    10:00 +22°C° 0.8 mm 3 mps 743 mmHg 88%
    11:00 +23°C° 0.8 mm 4 mps 743 mmHg 87%
    12:00 +24°C° 0.9 mm 3 mps 743 mmHg 86%
    13:00 +25°C° 0.9 mm 3 mps 743 mmHg 84%
    14:00 +25°C° 0.9 mm 2 mps 743 mmHg 82%
    15:00 +25°C° 1.1 mm 2 mps 743 mmHg 81%
    16:00 +26°C° 1.1 mm 2 mps 743 mmHg 80%
    17:00 +26°C° 1.1 mm 2 mps 742 mmHg 78%
    18:00 +25°C° 0.5 mm 2 mps 742 mmHg 82%
    19:00 +24°C° 0.5 mm 1 mps 742 mmHg 86%
    20:00 +23°C° 0.5 mm 1 mps 742 mmHg 89%
    21:00 +23°C° 0.3 mm 1 mps 742 mmHg 90%
    22:00 +22°C° 0.3 mm 1 mps 742 mmHg 91%
    23:00 +19°C° 0.3 mm 0 mps 742 mmHg 92%

    23 June, Sunday

    Time Temperature Precipitation Wind Pressure Humidity
    00:00 +19°C° 0 mm 0 mps 742 mmHg 93%
    01:00 +19°C° 0 mm 0 mps 742 mmHg 93%
    02:00 +20°C° 0 mm 1 mps 742 mmHg 93%
    03:00 +20°C° 0.2 mm 1 mps 742 mmHg 94%
    04:00 +20°C° 0.2 mm 1 mps 742 mmHg 95%
    05:00 +19°C° 0.2 mm 1 mps 742 mmHg 96%
    06:00 +21°C° 0.3 mm 1 mps 742 mmHg 92%
    07:00 +22°C° 0.3 mm 1 mps 742 mmHg 89%
    08:00 +23°C° 0.3 mm 2 mps 742 mmHg 86%
    09:00 +24°C° 0.1 mm 2 mps 742 mmHg 81%
    10:00 +25°C° 0.1 mm 2 mps 742 mmHg 75%
    11:00 +27°C° 0.1 mm 2 mps 742 mmHg 70%
    12:00 +27°C° 0.9 mm 3 mps 742 mmHg 71%
    13:00 +27°C° 0.9 mm 3 mps 742 mmHg 72%
    14:00 +27°C° 0.9 mm 3 mps 742 mmHg 72%
    15:00 +26°C° 1.8 mm 4 mps 742 mmHg 78%
    16:00 +23°C° 1.8 mm 5 mps 742 mmHg 84%
    17:00 +21°C° 1.8 mm 6 mps 742 mmHg 90%
    18:00 +20°C° 0.1 mm 6 mps 742 mmHg 89%
    19:00 +19°C° 0.1 mm 5 mps 742 mmHg 89%
    20:00 +17°C° 0.1 mm 5 mps 743 mmHg 89%
    21:00 +17°C° 0 mm 5 mps 743 mmHg 88%
    22:00 +17°C° 0 mm 5 mps 743 mmHg 87%
    23:00 +16°C° 0 mm 5 mps 744 mmHg 87%

    24 June, Monday

    Time Temperature Precipitation Wind Pressure Humidity
    00:00 +16°C° 0 mm 5 mps 744 mmHg 87%
    01:00 +16°C° 0 mm 5 mps 744 mmHg 88%
    02:00 +16°C° 0 mm 5 mps 744 mmHg 89%
    03:00 +16°C° 0.3 mm 5 mps 744 mmHg 91%
    04:00 +16°C° 0.3 mm 5 mps 744 mmHg 93%
    05:00 +15°C° 0.3 mm 6 mps 745 mmHg 95%
    06:00 +15°C° 0.8 mm 6 mps 745 mmHg 95%
    07:00 +15°C° 0.8 mm 6 mps 745 mmHg 95%
    08:00 +15°C° 0.8 mm 6 mps 746 mmHg 96%
    09:00 +15°C° 0.3 mm 6 mps 746 mmHg 96%
    10:00 +15°C° 0.3 mm 6 mps 747 mmHg 95%
    11:00 +14°C° 0.3 mm 6 mps 747 mmHg 95%
    12:00 +14°C° 0.2 mm 6 mps 748 mmHg 95%
    13:00 +14°C° 0.2 mm 6 mps 748 mmHg 94%
    14:00 +14°C° 0.2 mm 5 mps 748 mmHg 94%
    15:00 +15°C° 0.1 mm 5 mps 748 mmHg 93%
    16:00 +15°C° 0.1 mm 4 mps 748 mmHg 92%
    17:00 +16°C° 0.1 mm 3 mps 748 mmHg 91%
    18:00 +16°C° 0 mm 3 mps 749 mmHg 90%
    19:00 +17°C° 0 mm 2 mps 749 mmHg 89%
    20:00 +17°C° 0 mm 2 mps 749 mmHg 88%
    21:00 +17°C° 0 mm 2 mps 749 mmHg 88%
    22:00 +17°C° 0 mm 2 mps 750 mmHg 88%
    23:00 +17°C° 0 mm 3 mps 750 mmHg 87%
    Show more